Weather History for KECG - October, 2012

Change the Weather History Date:

Sunday, October 21, 2012

  Actual Average Record
Temperature  
Mean Temperature 59 °F 61 °F  
Max Temperature 71 °F 71 °F 85 °F (1947)
Min Temperature 46 °F 50 °F 30 °F (1974)
Degree Days  
Heating Degree Days 6 6  
Month to date heating degree days 36 70  
Since 1 July heating degree days 38 82  
Cooling Degree Days 0 1  
Month to date cooling degree days 82 47  
Year to date cooling degree days 2214 1569  
Growing Degree Days 10 (Base 50)    
Moisture  
Dew Point 44 °F    
Average Humidity 60    
Maximum Humidity 86    
Minimum Humidity 33    
Precipitation  
Precipitation 0.00 in 0.10 in 1.92 in (1958)
Month to date precipitation 1.93 2.11  
Year to date precipitation 40.06 40.00  
Snow  
Snow 0.00 in - 0.00 in (2002)
Month to date snowfall 0.0  
Since 1 July snowfall 0.0  
Snow Depth 0.00 in    
Sea Level Pressure  
Sea Level Pressure 30.06 in    
Wind  
Wind Speed 6 mph (NNW)    
Max Wind Speed 16 mph    
Max Gust Speed 21 mph    
Visibility 10 miles    
Events      
T = Trace of Precipitation, MM = Missing Value Source: NWS Daily Summary

Daily Weather History Graph

Daily Weather History Graph

Search for Another Location

Airport or City:

Trip Planner

Search our weather history database for the weather conditions in past years. The results will help you decide how hot, cold, wet, or windy it might be!

Date:

Astronomy

Oct. 21, 2012 Rise Set
Actual Time 7:17 AM EDT 6:20 PM EDT
Civil Twilight 6:51 AM EDT 6:46 PM EDT
Nautical Twilight 6:21 AM EDT 7:16 PM EDT
Astronomical Twilight 5:51 AM EDT 7:46 PM EDT
Moon 1:33 PM EDT (10/21) No Moon Set
Length of Visible Light 11h 55m
Length of Day
11h 02m
Waxing Crescent, 45% of the Moon is Illuminated
Oct 21
Waxing Crescent
Oct 21
First Quarter
Oct 29
Full
Nov 6
Last Quarter
Nov 13
New

Hourly Weather History & Observations

Time (EDT) Temp. Dew Point Humidity Pressure Visibility Wind Dir Wind Speed Gust Speed Precip Events Conditions
12:54 AM 59.0 °F 44.1 °F 58% 29.92 in 10.0 mi NW 8.1 mph - N/A   Clear
1:54 AM 59.0 °F 43.0 °F 55% 29.93 in 10.0 mi NW 6.9 mph - N/A   Clear
2:54 AM 55.0 °F 45.0 °F 69% 29.95 in 10.0 mi West 4.6 mph - N/A   Clear
3:54 AM 53.1 °F 45.0 °F 74% 29.95 in 10.0 mi WNW 4.6 mph - N/A   Clear
4:54 AM 53.1 °F 45.0 °F 74% 29.98 in 10.0 mi West 6.9 mph - N/A   Clear
5:54 AM 51.1 °F 45.0 °F 80% 30.00 in 10.0 mi WNW 4.6 mph - N/A   Clear
6:54 AM 54.0 °F 46.9 °F 77% 30.03 in 10.0 mi NW 5.8 mph - N/A   Clear
7:54 AM 52.0 °F 45.0 °F 77% 30.06 in 10.0 mi NW 4.6 mph - N/A   Clear
8:54 AM 61.0 °F 46.9 °F 60% 30.08 in 10.0 mi NNW 11.5 mph - N/A   Clear
9:54 AM 64.0 °F 46.9 °F 54% 30.10 in 10.0 mi North 12.7 mph - N/A   Clear
10:54 AM 68.0 °F 46.0 °F 45% 30.09 in 10.0 mi NNE 13.8 mph - N/A   Clear
11:54 AM 69.1 °F 43.0 °F 39% 30.09 in 10.0 mi NNE 12.7 mph - N/A   Clear
12:54 PM 70.0 °F 43.0 °F 38% 30.09 in 10.0 mi North 8.1 mph - N/A   Partly Cloudy
1:54 PM 71.1 °F 44.1 °F 38% 30.08 in 10.0 mi NNW 9.2 mph - N/A   Partly Cloudy
2:54 PM 70.0 °F 41.0 °F 35% 30.07 in 10.0 mi North 6.9 mph - N/A   Clear
3:54 PM 70.0 °F 41.0 °F 35% 30.07 in 10.0 mi North 6.9 mph - N/A   Clear
4:54 PM 69.1 °F 39.9 °F 35% 30.07 in 10.0 mi North 5.8 mph - N/A   Clear
5:54 PM 66.0 °F 39.9 °F 38% 30.08 in 10.0 mi NNW 4.6 mph - N/A   Clear
6:54 PM 59.0 °F 42.1 °F 53% 30.10 in 10.0 mi WNW 3.5 mph - N/A   Clear
7:54 PM 57.9 °F 43.0 °F 58% 30.12 in 10.0 mi Calm Calm - N/A   Clear
8:54 PM 53.1 °F 45.0 °F 74% 30.13 in 10.0 mi Calm Calm - N/A   Clear
9:54 PM 48.9 °F 44.1 °F 83% 30.13 in 10.0 mi Calm Calm - N/A   Clear
10:54 PM 50.0 °F 43.0 °F 77% 30.14 in 10.0 mi Calm Calm - N/A   Clear
11:54 PM 53.1 °F 43.0 °F 69% 30.14 in 10.0 mi Calm Calm - N/A   Clear